User: anonymous   Login
Location: Vancouver
(49.2500°N, 123.1330°W)
Time: 17:35:22
(UTC-08:00)
Language:

Iridium 21 - Orbit

View from above orbital plane
View from above orbital plane
View from above satellite
View from above satellite

Ground track
Ground track

The orbit data is extracted from the following two-line orbital elements,

1 25778U 99032B   17021.32553842  .00000166  00000-0  52116-4 0  9997
2 25778  86.3969 285.3553 0001910  85.9716 274.1698 14.34218472927067
Epoch (UTC): 21 January 2017 07:48:46
Eccentricity: 0.0001910
inclination: 86.3969°
perigee height: 776 km
apogee height: 779 km
right ascension of ascending node: 285.3553°
argument of perigee: 85.9716°
revolutions per day: 14.34218472
mean anomaly at epoch: 274.1698°
orbit number at epoch: 92706

The dashed part of the orbit path shows where the satellite is in the earth's shadow,  

DLR